Location: Krakow
(50.0830°N, 19.9170°E)
Time: 15:59:45
(UTC+01:00)

Vanguard 2 - Visible Passes

Search period start: 27 January 2023 00:00
Search period end: 06 February 2023 00:00
Orbit: 554 x 2930 km, 32.9° (Epoch: 26 January)

Date Brightness Start Highest point End Pass type
(mag) Time Alt. Az. Time Alt. Az. Time Alt. Az.
27 Jan 11.6 00:32:31 11° ESE 00:32:31 11° ESE 00:32:50 10° ESE visible
27 Jan 10.6 02:33:50 34° SSE 02:33:50 34° SSE 02:41:38 10° SE visible
27 Jan 10.6 04:35:08 26° SW 04:38:37 28° SSW 04:47:54 10° SSE visible
28 Jan 11.5 00:48:15 14° ESE 00:48:15 14° ESE 00:49:39 10° ESE visible
28 Jan 10.6 02:49:33 35° SSE 02:49:33 35° SSE 02:58:03 10° SE visible
28 Jan 10.7 04:50:52 22° SW 04:54:49 24° SW 05:03:35 10° SSE visible
29 Jan 11.4 01:04:00 17° ESE 01:04:00 17° ESE 01:06:20 10° ESE visible
29 Jan 10.6 03:05:19 35° S 03:05:19 35° S 03:14:19 10° SE visible
29 Jan 10.9 05:06:38 18° WSW 05:10:55 20° SW 05:18:52 10° S visible
30 Jan 11.3 01:19:47 19° SE 01:19:47 19° SE 01:22:56 10° ESE visible
30 Jan 10.7 03:21:06 33° S 03:21:06 33° S 03:30:26 10° SE visible
30 Jan 11.1 05:22:26 14° WSW 05:26:55 16° SW 05:33:29 10° SSW visible
31 Jan 11.2 01:35:36 21° SE 01:35:36 21° SE 01:39:25 10° ESE visible
31 Jan 10.7 03:36:56 30° SSW 03:36:56 30° SSW 03:46:18 10° SSE visible
31 Jan 11.2 05:38:50 10° WSW 05:42:49 11° SW 05:46:28 10° SW visible
31 Jan 11.4 21:10:08 10° SSW 21:10:45 11° SSW 21:10:45 11° SSW visible
01 Feb 11.2 01:51:28 22° SE 01:51:28 22° SE 01:55:46 10° SE visible
01 Feb 10.9 03:52:48 26° SSW 03:52:48 26° SSW 04:01:53 10° SSE visible
01 Feb 11.3 19:24:36 10° SSE 19:25:30 11° SSE 19:25:30 11° SSE visible
01 Feb 11.4 21:25:42 10° SSW 21:26:50 13° SSW 21:26:50 13° SSW visible
02 Feb 11.2 02:07:21 23° SSE 02:07:21 23° SSE 02:11:58 10° SE visible
02 Feb 11.0 04:08:41 22° SSW 04:08:41 22° SSW 04:17:04 10° S visible
02 Feb 11.1 19:38:01 10° S 19:41:34 15° SSE 19:41:34 15° SSE visible
02 Feb 11.4 21:41:33 10° SW 21:42:55 14° SSW 21:42:55 14° SSW visible
03 Feb 11.2 02:23:18 22° SSE 02:23:18 22° SSE 02:27:59 10° SE visible
03 Feb 11.1 04:24:38 17° SW 04:24:38 17° SW 04:31:36 10° S visible
03 Feb 11.0 19:52:41 10° S 19:57:38 19° SSE 19:57:38 19° SSE visible
03 Feb 11.4 21:57:36 10° SW 21:58:58 14° SW 21:58:58 14° SW visible
04 Feb 11.2 02:39:16 20° SSE 02:39:16 20° SSE 02:43:45 10° SSE visible
04 Feb 11.3 04:40:37 13° SW 04:40:37 13° SW 04:44:50 10° SSW visible
04 Feb 10.8 20:07:56 10° SSW 20:13:39 23° SSE 20:13:39 23° SSE visible
04 Feb 11.4 22:13:50 10° SW 22:15:00 13° SW 22:15:00 13° SW visible
05 Feb 11.3 02:55:17 18° S 02:55:17 18° S 02:59:12 10° SSE visible
05 Feb 11.1 18:23:58 10° SE 18:26:24 11° SE 18:28:19 10° ESE visible
05 Feb 10.7 20:23:33 10° SSW 20:29:39 26° S 20:29:39 26° S visible
05 Feb 11.4 22:30:11 10° WSW 22:30:59 12° SW 22:30:59 12° SW visible
